Year,Month,Day,Hour,Minute,Value (Times are PST for temperature in C)
2012,04,26,07,14,6.90
2012,04,26,07,15,6.90
2012,04,26,07,16,6.80
2012,04,26,07,17,6.80
2012,04,26,07,18,6.80
2012,04,26,07,19,6.80
2012,04,26,07,20,6.80
2012,04,26,07,21,6.80
2012,04,26,07,22,6.80
2012,04,26,07,23,6.80
2012,04,26,07,24,6.80
2012,04,26,07,25,6.80
2012,04,26,07,26,6.80
2012,04,26,07,27,6.80
2012,04,26,07,28,6.90
2012,04,26,07,29,6.90
2012,04,26,07,30,6.90
2012,04,26,07,31,6.90
2012,04,26,07,32,6.90
2012,04,26,07,33,6.90
2012,04,26,07,34,6.90
2012,04,26,07,35,6.90
2012,04,26,07,36,6.90
2012,04,26,07,37,6.90
2012,04,26,07,38,6.90
2012,04,26,07,39,6.80
2012,04,26,07,40,6.80
2012,04,26,07,41,6.80
2012,04,26,07,42,6.90
2012,04,26,07,43,6.90
2012,04,26,07,44,6.90
2012,04,26,07,45,6.90
2012,04,26,07,46,7.00
2012,04,26,07,47,7.00
2012,04,26,07,48,7.00
2012,04,26,07,49,7.00
2012,04,26,07,50,7.10
2012,04,26,07,51,7.10
2012,04,26,07,52,7.10
2012,04,26,07,53,7.10
2012,04,26,07,54,7.10
2012,04,26,07,55,7.10
2012,04,26,07,56,7.00
2012,04,26,07,57,7.00
2012,04,26,07,58,7.00
2012,04,26,07,59,7.00
2012,04,26,08,00,7.00
2012,04,26,08,01,7.10
2012,04,26,08,02,7.10
2012,04,26,08,03,7.20
2012,04,26,08,04,7.20
2012,04,26,08,05,7.20
2012,04,26,08,06,7.10
2012,04,26,08,07,7.10
2012,04,26,08,08,7.10
2012,04,26,08,09,7.20
2012,04,26,08,10,7.20
2012,04,26,08,11,7.20
2012,04,26,08,12,7.20
2012,04,26,08,13,7.20
2012,04,26,08,14,7.20
2012,04,26,08,15,7.20
2012,04,26,08,16,7.30
2012,04,26,08,17,7.30
2012,04,26,08,18,7.40
2012,04,26,08,19,7.50
2012,04,26,08,20,7.60
2012,04,26,08,21,7.70
2012,04,26,08,22,7.80
2012,04,26,08,23,7.80
2012,04,26,08,24,7.80
2012,04,26,08,25,7.80
2012,04,26,08,26,7.80
2012,04,26,08,27,7.80
2012,04,26,08,28,7.70
2012,04,26,08,29,7.70
2012,04,26,08,30,7.70
2012,04,26,08,31,7.70
2012,04,26,08,32,7.70
2012,04,26,08,33,7.70
2012,04,26,08,34,7.70
2012,04,26,08,35,7.80
2012,04,26,08,36,7.80
2012,04,26,08,37,7.80
2012,04,26,08,38,7.90
2012,04,26,08,39,7.90
2012,04,26,08,40,7.90
2012,04,26,08,41,7.90
2012,04,26,08,42,8.00
2012,04,26,08,43,8.00
2012,04,26,08,44,8.10
2012,04,26,08,45,8.10
2012,04,26,08,46,8.20
2012,04,26,08,47,8.20
2012,04,26,08,48,8.20
2012,04,26,08,49,8.20
2012,04,26,08,50,8.20
2012,04,26,08,51,8.10
2012,04,26,08,52,8.10
2012,04,26,08,53,8.10
2012,04,26,08,54,8.10
2012,04,26,08,55,8.00
2012,04,26,08,56,8.00
2012,04,26,08,57,8.10
2012,04,26,08,58,8.10
2012,04,26,08,59,8.10
2012,04,26,09,00,8.10
2012,04,26,09,01,8.10
2012,04,26,09,02,8.10
2012,04,26,09,03,8.10
2012,04,26,09,04,8.10
2012,04,26,09,05,8.10
2012,04,26,09,06,8.10
2012,04,26,09,07,8.20
2012,04,26,09,08,8.20
2012,04,26,09,09,8.30
2012,04,26,09,10,8.30
2012,04,26,09,11,8.40
2012,04,26,09,12,8.50
2012,04,26,09,13,8.50
2012,04,26,09,14,8.50
2012,04,26,09,15,8.50
2012,04,26,09,16,8.60
2012,04,26,09,17,8.70
2012,04,26,09,18,8.80
2012,04,26,09,19,8.80
2012,04,26,09,20,8.80
2012,04,26,09,21,8.80
2012,04,26,09,22,8.80
2012,04,26,09,23,8.70
2012,04,26,09,24,8.80
2012,04,26,09,25,8.80
2012,04,26,09,26,8.90
2012,04,26,09,27,8.80
2012,04,26,09,28,8.80
2012,04,26,09,29,8.70
2012,04,26,09,30,8.60
2012,04,26,09,31,8.50
2012,04,26,09,32,8.40
2012,04,26,09,33,8.30
2012,04,26,09,34,8.20
2012,04,26,09,35,8.20
2012,04,26,09,36,8.10
2012,04,26,09,37,8.00
2012,04,26,09,38,8.00
2012,04,26,09,39,7.90
2012,04,26,09,40,7.90
2012,04,26,09,41,7.80
2012,04,26,09,42,7.80
2012,04,26,09,43,7.80
2012,04,26,09,44,7.80
2012,04,26,09,45,7.80
2012,04,26,09,46,7.80
2012,04,26,09,47,7.80
2012,04,26,09,48,7.70
2012,04,26,09,49,7.70
2012,04,26,09,50,7.70
2012,04,26,09,51,7.70
2012,04,26,09,52,7.70
2012,04,26,09,53,7.70
2012,04,26,09,54,7.70
2012,04,26,09,55,7.70
2012,04,26,09,56,7.80
2012,04,26,09,57,7.80
2012,04,26,09,58,7.80
2012,04,26,09,59,7.80
2012,04,26,10,00,7.80
2012,04,26,10,01,7.90
2012,04,26,10,02,7.90
2012,04,26,10,03,7.90
2012,04,26,10,04,7.90
2012,04,26,10,05,7.80
2012,04,26,10,06,7.80
2012,04,26,10,07,7.80
2012,04,26,10,08,7.80
2012,04,26,10,09,7.80
2012,04,26,10,10,7.90
2012,04,26,10,11,7.90
2012,04,26,10,12,7.90
2012,04,26,10,13,7.90
2012,04,26,10,14,7.90
2012,04,26,10,15,7.90
2012,04,26,10,16,7.90
2012,04,26,10,17,7.90
2012,04,26,10,18,7.90
2012,04,26,10,19,7.90
2012,04,26,10,20,7.80
2012,04,26,10,21,7.80
2012,04,26,10,22,7.80
2012,04,26,10,23,7.80
2012,04,26,10,24,7.70
2012,04,26,10,25,7.70
2012,04,26,10,26,7.70
2012,04,26,10,27,7.80
2012,04,26,10,28,7.80
2012,04,26,10,29,7.80
2012,04,26,10,30,7.90
2012,04,26,10,31,7.90
2012,04,26,10,32,7.90
2012,04,26,10,33,8.00
2012,04,26,10,34,8.10
2012,04,26,10,35,8.10
2012,04,26,10,36,8.20
2012,04,26,10,37,8.20
2012,04,26,10,38,8.30
2012,04,26,10,39,8.40
2012,04,26,10,40,8.40
2012,04,26,10,41,8.50
2012,04,26,10,42,8.50
2012,04,26,10,43,8.60
2012,04,26,10,44,8.60
2012,04,26,10,45,8.60
2012,04,26,10,46,8.60
2012,04,26,10,47,8.70
2012,04,26,10,48,8.70
2012,04,26,10,49,8.70
2012,04,26,10,50,8.80
2012,04,26,10,51,8.80
2012,04,26,10,52,8.80
2012,04,26,10,53,8.80
2012,04,26,10,54,8.90
2012,04,26,10,55,8.90
2012,04,26,10,56,9.00
2012,04,26,10,57,9.10
2012,04,26,10,58,9.20
2012,04,26,10,59,9.30
2012,04,26,11,00,9.40
2012,04,26,11,01,9.40
2012,04,26,11,02,9.40
2012,04,26,11,03,9.50
2012,04,26,11,04,9.50
2012,04,26,11,05,9.50
2012,04,26,11,06,9.50
2012,04,26,11,07,9.40
2012,04,26,11,08,9.40
2012,04,26,11,09,9.50
2012,04,26,11,10,9.50
2012,04,26,11,11,9.50
2012,04,26,11,12,9.60
2012,04,26,11,13,9.60
2012,04,26,11,14,9.60
2012,04,26,11,15,9.60
2012,04,26,11,16,9.70
2012,04,26,11,17,9.70
2012,04,26,11,18,9.60
2012,04,26,11,19,9.50
2012,04,26,11,20,9.40
2012,04,26,11,21,9.40
2012,04,26,11,22,9.40
2012,04,26,11,23,9.50
2012,04,26,11,24,9.50
2012,04,26,11,25,9.60
2012,04,26,11,26,9.60
2012,04,26,11,27,9.60
2012,04,26,11,28,9.60
2012,04,26,11,29,9.60
2012,04,26,11,30,9.60
2012,04,26,11,31,9.60
2012,04,26,11,32,9.70
2012,04,26,11,33,9.70
2012,04,26,11,34,9.60
2012,04,26,11,35,9.60
2012,04,26,11,36,9.60
2012,04,26,11,37,9.60
2012,04,26,11,38,9.70
2012,04,26,11,39,9.70
2012,04,26,11,40,9.80
2012,04,26,11,41,9.90
2012,04,26,11,42,9.90
2012,04,26,11,43,10.00
2012,04,26,11,44,10.10
2012,04,26,11,45,10.10
2012,04,26,11,46,10.10
2012,04,26,11,47,10.10
2012,04,26,11,48,10.10
2012,04,26,11,49,10.20
2012,04,26,11,50,10.20
2012,04,26,11,51,10.20
2012,04,26,11,52,10.20
2012,04,26,11,53,10.20
2012,04,26,11,54,10.20
2012,04,26,11,55,10.20
2012,04,26,11,56,10.10
2012,04,26,11,57,10.10
2012,04,26,11,58,10.10
2012,04,26,11,59,10.10
2012,04,26,12,00,10.10
2012,04,26,12,01,10.00
2012,04,26,12,02,10.00
2012,04,26,12,03,10.00
2012,04,26,12,04,10.10
2012,04,26,12,05,10.10
2012,04,26,12,06,10.10
2012,04,26,12,07,10.20
2012,04,26,12,08,10.20
2012,04,26,12,09,10.20
2012,04,26,12,10,10.30
2012,04,26,12,11,10.30
2012,04,26,12,12,10.30
2012,04,26,12,13,10.40
2012,04,26,12,14,10.40
2012,04,26,12,15,10.50
2012,04,26,12,16,10.50
2012,04,26,12,17,10.50
2012,04,26,12,18,10.50
2012,04,26,12,19,10.60
2012,04,26,12,20,10.60
2012,04,26,12,21,10.60
2012,04,26,12,22,10.60
2012,04,26,12,23,10.60
2012,04,26,12,24,10.70
2012,04,26,12,25,10.70
2012,04,26,12,26,10.70
2012,04,26,12,27,10.70
2012,04,26,12,28,10.70
2012,04,26,12,29,10.60
2012,04,26,12,30,10.60
2012,04,26,12,31,10.60
2012,04,26,12,32,10.60
2012,04,26,12,33,10.70
2012,04,26,12,34,10.70
2012,04,26,12,35,10.70
2012,04,26,12,36,10.80
2012,04,26,12,37,10.80
2012,04,26,12,38,10.80
2012,04,26,12,39,10.80
2012,04,26,12,40,10.80
2012,04,26,12,41,10.80
2012,04,26,12,42,10.80
2012,04,26,12,43,10.80
2012,04,26,12,44,10.80
2012,04,26,12,45,10.80
2012,04,26,12,46,10.90
2012,04,26,12,47,10.90
2012,04,26,12,48,10.80
2012,04,26,12,49,10.70
2012,04,26,12,50,10.70
2012,04,26,12,51,10.80
2012,04,26,12,52,10.80
2012,04,26,12,53,10.80
2012,04,26,12,54,10.80
2012,04,26,12,55,10.80
2012,04,26,12,56,10.70
2012,04,26,12,57,10.70
2012,04,26,12,58,10.70
2012,04,26,12,59,10.70
2012,04,26,13,00,10.70
2012,04,26,13,01,10.70
2012,04,26,13,02,10.70
2012,04,26,13,03,10.70
2012,04,26,13,04,10.70
2012,04,26,13,05,10.70
2012,04,26,13,06,10.70
2012,04,26,13,07,10.70
2012,04,26,13,08,10.70
2012,04,26,13,09,10.80
2012,04,26,13,10,10.80
2012,04,26,13,11,10.90
2012,04,26,13,12,11.00
2012,04,26,13,13,11.10
2012,04,26,13,14,11.10
2012,04,26,13,15,11.20
2012,04,26,13,16,11.20
2012,04,26,13,17,11.20
2012,04,26,13,18,11.20
2012,04,26,13,19,11.20
2012,04,26,13,20,11.20
2012,04,26,13,21,11.20
2012,04,26,13,22,11.20
2012,04,26,13,23,11.20
2012,04,26,13,24,11.30
2012,04,26,13,25,11.20
2012,04,26,13,26,11.10
2012,04,26,13,27,11.10
2012,04,26,13,28,11.10
2012,04,26,13,29,11.10
2012,04,26,13,30,11.20
2012,04,26,13,31,11.30
2012,04,26,13,32,11.30
2012,04,26,13,33,11.30
2012,04,26,13,34,11.30
2012,04,26,13,35,11.20
2012,04,26,13,36,11.20
2012,04,26,13,37,11.20
2012,04,26,13,38,11.20
2012,04,26,13,39,11.20
2012,04,26,13,40,11.20
2012,04,26,13,41,11.20
2012,04,26,13,42,11.20
2012,04,26,13,43,11.20
2012,04,26,13,44,11.20
2012,04,26,13,45,11.20
2012,04,26,13,46,11.10
2012,04,26,13,47,11.00
2012,04,26,13,48,11.00
2012,04,26,13,49,11.00
2012,04,26,13,50,11.00
2012,04,26,13,51,11.10
2012,04,26,13,52,11.10
2012,04,26,13,53,11.10
2012,04,26,13,54,11.10
2012,04,26,13,55,11.10
2012,04,26,13,56,11.10
2012,04,26,13,57,11.20
2012,04,26,13,58,11.20
2012,04,26,13,59,11.30
2012,04,26,14,00,11.40
2012,04,26,14,01,11.50
2012,04,26,14,02,11.50
2012,04,26,14,03,11.40
2012,04,26,14,04,11.40
2012,04,26,14,05,11.40
2012,04,26,14,06,11.40
2012,04,26,14,07,11.40
2012,04,26,14,08,11.50
2012,04,26,14,09,11.60
2012,04,26,14,10,11.50
2012,04,26,14,11,11.40
2012,04,26,14,12,11.40
2012,04,26,14,13,11.40
2012,04,26,14,14,11.40
2012,04,26,14,15,11.40
2012,04,26,14,16,11.50
2012,04,26,14,17,11.60
2012,04,26,14,18,11.70
2012,04,26,14,19,11.70
2012,04,26,14,20,11.70
2012,04,26,14,21,11.70
2012,04,26,14,22,11.60
2012,04,26,14,23,11.40
2012,04,26,14,24,11.30
2012,04,26,14,25,11.30
2012,04,26,14,26,11.40
2012,04,26,14,27,11.40
2012,04,26,14,28,11.40
2012,04,26,14,29,11.40
2012,04,26,14,30,11.30
2012,04,26,14,31,11.30
2012,04,26,14,32,11.40
2012,04,26,14,33,11.40
2012,04,26,14,34,11.40
2012,04,26,14,35,11.50
2012,04,26,14,36,11.50
2012,04,26,14,37,11.60
2012,04,26,14,38,11.50
2012,04,26,14,39,11.50
2012,04,26,14,40,11.60
2012,04,26,14,41,11.60
2012,04,26,14,42,11.70
2012,04,26,14,43,11.70
2012,04,26,14,44,11.80
2012,04,26,14,45,11.70
2012,04,26,14,46,11.70
2012,04,26,14,47,11.70
2012,04,26,14,48,11.70
2012,04,26,14,49,11.70
2012,04,26,14,50,11.60
2012,04,26,14,51,11.60
2012,04,26,14,52,11.70
2012,04,26,14,53,11.80
2012,04,26,14,54,11.70
2012,04,26,14,55,11.60
2012,04,26,14,56,11.50
2012,04,26,14,57,11.40
2012,04,26,14,58,11.30
2012,04,26,14,59,11.30
2012,04,26,15,00,11.30
2012,04,26,15,01,11.30
2012,04,26,15,02,11.40
2012,04,26,15,03,11.50
2012,04,26,15,04,11.50
2012,04,26,15,05,11.60
2012,04,26,15,06,11.70
2012,04,26,15,07,11.80
2012,04,26,15,08,11.80
2012,04,26,15,09,11.80
2012,04,26,15,10,11.90
2012,04,26,15,11,11.90
2012,04,26,15,12,11.90
2012,04,26,15,13,11.90
2012,04,26,15,14,11.90
2012,04,26,15,15,11.90
2012,04,26,15,16,11.90
2012,04,26,15,17,11.80
2012,04,26,15,18,11.70
2012,04,26,15,19,11.70
2012,04,26,15,20,11.60
2012,04,26,15,21,11.60
2012,04,26,15,22,11.60
2012,04,26,15,23,11.60
2012,04,26,15,24,11.70
2012,04,26,15,25,11.80
2012,04,26,15,26,11.90
2012,04,26,15,27,11.90
2012,04,26,15,28,12.00
2012,04,26,15,29,12.10
2012,04,26,15,30,12.10
2012,04,26,15,31,12.10
2012,04,26,15,32,12.10
2012,04,26,15,33,12.00
2012,04,26,15,34,11.80
2012,04,26,15,35,11.60
2012,04,26,15,36,11.60
2012,04,26,15,37,11.60
2012,04,26,15,38,11.60
2012,04,26,15,39,11.60
2012,04,26,15,40,11.70
2012,04,26,15,41,11.80
2012,04,26,15,42,11.90
2012,04,26,15,43,11.90
2012,04,26,15,44,11.90
2012,04,26,15,45,11.90
2012,04,26,15,46,11.90
2012,04,26,15,47,11.80
2012,04,26,15,48,11.80
2012,04,26,15,49,11.80
2012,04,26,15,50,11.80
2012,04,26,15,51,11.60
2012,04,26,15,52,11.50
2012,04,26,15,53,11.40
2012,04,26,15,54,11.40
2012,04,26,15,55,11.40
2012,04,26,15,56,11.30
2012,04,26,15,57,11.30
2012,04,26,15,58,11.40
2012,04,26,15,59,11.50
2012,04,26,16,00,11.50
2012,04,26,16,01,11.60
2012,04,26,16,02,11.60
2012,04,26,16,03,11.60
2012,04,26,16,04,11.50
2012,04,26,16,05,11.40
2012,04,26,16,06,11.40
2012,04,26,16,07,11.40
2012,04,26,16,08,11.30
2012,04,26,16,09,11.30
2012,04,26,16,10,11.30
2012,04,26,16,11,11.30
2012,04,26,16,12,11.30
2012,04,26,16,13,11.30
2012,04,26,16,14,11.40
2012,04,26,16,15,11.50
2012,04,26,16,16,11.60
2012,04,26,16,17,11.70
2012,04,26,16,18,11.80
2012,04,26,16,19,11.90
2012,04,26,16,20,11.90
2012,04,26,16,21,12.00
2012,04,26,16,22,11.90
2012,04,26,16,23,11.90
2012,04,26,16,24,11.90
2012,04,26,16,25,11.80
2012,04,26,16,26,11.70
2012,04,26,16,27,11.50
2012,04,26,16,28,11.40
2012,04,26,16,29,11.40
2012,04,26,16,30,11.50
2012,04,26,16,31,11.60
2012,04,26,16,32,11.60
2012,04,26,16,33,11.60
2012,04,26,16,34,11.60
2012,04,26,16,35,11.60
2012,04,26,16,36,11.60
2012,04,26,16,37,11.60
2012,04,26,16,38,11.60
2012,04,26,16,39,11.70
2012,04,26,16,40,11.70
2012,04,26,16,41,11.70
2012,04,26,16,42,11.80
2012,04,26,16,43,11.80
2012,04,26,16,44,11.70
2012,04,26,16,45,11.60
2012,04,26,16,46,11.70
2012,04,26,16,47,11.60
2012,04,26,16,48,11.60
2012,04,26,16,49,11.60
2012,04,26,16,50,11.60
2012,04,26,16,51,11.60
2012,04,26,16,52,11.70
2012,04,26,16,53,11.70
2012,04,26,16,54,11.70
2012,04,26,16,55,11.70
2012,04,26,16,56,11.70
2012,04,26,16,57,11.60
2012,04,26,16,58,11.60
2012,04,26,16,59,11.60
2012,04,26,17,00,11.70
2012,04,26,17,01,11.60
2012,04,26,17,02,11.50
2012,04,26,17,03,11.50
2012,04,26,17,04,11.60
2012,04,26,17,05,11.50
2012,04,26,17,06,11.50
2012,04,26,17,07,11.50
2012,04,26,17,08,11.50
2012,04,26,17,09,11.50
2012,04,26,17,10,11.60
2012,04,26,17,11,11.60
2012,04,26,17,12,11.70
2012,04,26,17,13,11.60
2012,04,26,17,14,11.60
2012,04,26,17,15,11.60
2012,04,26,17,16,11.60
2012,04,26,17,17,11.60
2012,04,26,17,18,11.60
2012,04,26,17,19,11.60
2012,04,26,17,20,11.50
2012,04,26,17,21,11.40
2012,04,26,17,22,11.40
2012,04,26,17,23,11.40
2012,04,26,17,24,11.50
2012,04,26,17,25,11.50
2012,04,26,17,26,11.50
2012,04,26,17,27,11.50
2012,04,26,17,28,11.50
2012,04,26,17,29,11.40
2012,04,26,17,30,11.30
2012,04,26,17,31,11.30
2012,04,26,17,32,11.30
2012,04,26,17,33,11.30
2012,04,26,17,34,11.20
2012,04,26,17,35,11.10
2012,04,26,17,36,11.10
2012,04,26,17,37,11.10
2012,04,26,17,38,11.10
2012,04,26,17,39,11.20
2012,04,26,17,40,11.20
2012,04,26,17,41,11.10
2012,04,26,17,42,11.10
2012,04,26,17,43,11.10
2012,04,26,17,44,11.10
2012,04,26,17,45,11.10
2012,04,26,17,46,11.10
2012,04,26,17,47,11.20
2012,04,26,17,48,11.30
2012,04,26,17,49,11.30
2012,04,26,17,50,11.30
2012,04,26,17,51,11.30
2012,04,26,17,52,11.30
2012,04,26,17,53,11.30
2012,04,26,17,54,11.30
2012,04,26,17,55,11.20
2012,04,26,17,56,11.10
2012,04,26,17,57,11.10
2012,04,26,17,58,11.00
2012,04,26,17,59,11.00
2012,04,26,18,00,11.00
2012,04,26,18,01,11.00
2012,04,26,18,02,11.00
2012,04,26,18,03,11.10
2012,04,26,18,04,11.20
2012,04,26,18,05,11.20
2012,04,26,18,06,11.20
2012,04,26,18,07,11.30
2012,04,26,18,08,11.30
2012,04,26,18,09,11.30
2012,04,26,18,10,11.30
2012,04,26,18,11,11.30
2012,04,26,18,12,11.20
2012,04,26,18,13,11.10
2012,04,26,18,14,11.10
2012,04,26,18,15,11.00
2012,04,26,18,16,11.00
2012,04,26,18,17,11.10
2012,04,26,18,18,11.10
2012,04,26,18,19,11.10
2012,04,26,18,20,11.10
2012,04,26,18,21,11.10
2012,04,26,18,22,11.00
2012,04,26,18,23,11.00
2012,04,26,18,24,10.90
2012,04,26,18,25,10.90
2012,04,26,18,26,10.80
2012,04,26,18,27,10.80
2012,04,26,18,28,10.70
2012,04,26,18,29,10.70
2012,04,26,18,30,10.70
2012,04,26,18,31,10.70
2012,04,26,18,32,10.70
2012,04,26,18,33,10.70
2012,04,26,18,34,10.60
2012,04,26,18,35,10.50
2012,04,26,18,36,10.40
2012,04,26,18,37,10.40
2012,04,26,18,38,10.40
2012,04,26,18,39,10.40
2012,04,26,18,40,10.40
2012,04,26,18,41,10.40
2012,04,26,18,42,10.40
2012,04,26,18,43,10.40
2012,04,26,18,44,10.50
2012,04,26,18,45,10.50
2012,04,26,18,46,10.50
2012,04,26,18,47,10.50
2012,04,26,18,48,10.50
2012,04,26,18,49,10.50
2012,04,26,18,50,10.50
2012,04,26,18,51,10.40
2012,04,26,18,52,10.40
2012,04,26,18,53,10.40
2012,04,26,18,54,10.40
2012,04,26,18,55,10.40
2012,04,26,18,56,10.40
2012,04,26,18,57,10.50
2012,04,26,18,58,10.50
2012,04,26,18,59,10.50
2012,04,26,19,00,10.50
2012,04,26,19,01,10.50
2012,04,26,19,02,10.60
2012,04,26,19,03,10.60
2012,04,26,19,04,10.60
2012,04,26,19,05,10.50
2012,04,26,19,06,10.50
2012,04,26,19,07,10.50
2012,04,26,19,08,10.50
2012,04,26,19,09,10.40
2012,04,26,19,10,10.40
2012,04,26,19,11,10.40
2012,04,26,19,12,10.40
2012,04,26,19,13,10.40
2012,04,26,19,14,10.40
2012,04,26,19,15,10.30
2012,04,26,19,16,10.30
2012,04,26,19,17,10.30
2012,04,26,19,18,10.20
2012,04,26,19,19,10.20
2012,04,26,19,20,10.20
2012,04,26,19,21,10.20
2012,04,26,19,22,10.20
2012,04,26,19,23,10.20
2012,04,26,19,24,10.20
2012,04,26,19,25,10.20
2012,04,26,19,26,10.20
2012,04,26,19,27,10.20
2012,04,26,19,28,10.20
2012,04,26,19,29,10.30
2012,04,26,19,30,10.30
2012,04,26,19,31,10.20
2012,04,26,19,32,10.20
2012,04,26,19,33,10.20
2012,04,26,19,34,10.10
2012,04,26,19,35,10.10
2012,04,26,19,36,10.10
2012,04,26,19,37,10.10
2012,04,26,19,38,10.10
2012,04,26,19,39,10.10
2012,04,26,19,40,10.10
2012,04,26,19,41,10.00
2012,04,26,19,42,9.90
2012,04,26,19,43,9.90
2012,04,26,19,44,9.80
2012,04,26,19,45,9.80
2012,04,26,19,46,9.80
2012,04,26,19,47,9.80
2012,04,26,19,48,9.80
2012,04,26,19,49,9.80
2012,04,26,19,50,9.80
2012,04,26,19,51,9.80
2012,04,26,19,52,9.80
2012,04,26,19,53,9.80
2012,04,26,19,54,9.80
